sat.trackr.live / text

‹ back to catalog

ARCTICSAT 1 (RS74S)

NORAD 61762 · 2024-199AD

PAYLOAD ACTIVE UNKNOWN

§ Identity

Operator
Country
CIS
Launch date
2024-11-04
Launch site
VOSTO
Launch vehicle
Mass (kg)
RCS (m²)

Purposes: comms

External: N2YO · Heavens-Above · Gunter

§ Orbital elements

Epoch: 2026-05-25T04:40:05.979360Z

Period
90.53 min
Inclination
97.2868°
Eccentricity
0.0002323
Mean motion
15.90566243 rev/d
Perigee alt
299.1 km
Apogee alt
302.2 km
Semi-major
6,678.8 km
B*
1.1763e-3
RAAN
27.5581°
Arg perigee
153.0455°
Mean anomaly
207.0940°
Rev number
13,444

§ Raw data

ARCTICSAT 1 (RS74S)1 61762U 24199AD  26145.19451365  .00359128  50059-4  11763-2 0  99902 61762  97.2868  27.5581 0002323 153.0455 207.0940 15.90566243134444

JSON: /api/v1/satellites/61762 · /tle

For live sub-satellite position, see the globe view (requires WebGL).

§ Visibility from observer

Set your observer location to see the next 7 days of passes ≥ 10°. The values pass through the URL so the page stays shareable.

No JS? Fill the form by hand. The geolocation button needs JavaScript.

§ Radio — SatNOGS DB

ModeDescriptionDownlinkUplink
GMSK USP Mode U - GMSK 19k2 (USP) TLM 435.890 MHz
GMSK USP Mode U - GMSK 2k4 (USP) TLM 435.890 MHz
SSTV Mode U - Robot 36 SSTV 435.890 MHz

3 transmitters · refreshed weekly from db.satnogs.org